Regional Weather Roundup
Issued by NWS New Orleans/Baton Rouge, LA

Home | Current Version | Previous Version | Text Only | Print | Product List | Glossary On
Versions: 1 2 3 4 5 6 7 8 9 10 11 12 13 14 15 16 17 18 19 20 21 22 23 24 25 26 27 28 29 30 31 32 33 34 35 36 37 38 39 40 41 42 43 44 45 46 47 48 49 50
000
ASUS44 KLIX 281110
RWRLIX
NEW ORLEANS REGIONAL WEATHER ROUNDUP
NATIONAL WEATHER SERVICE NEW ORLEANS LA
500 AM CST FRI NOV 28 2014

NOTE: "FAIR" INDICATES FEW OR NO CLOUDS BELOW 12,000 FEET WITH NO
      SIGNIFICANT WEATHER AND/OR OBSTRUCTIONS TO VISIBILITY.
      SKY/WX - SKY CONDITION AND SIGNIFICANT WEATHER.
      TMP - AIR TEMPERATURE.     DP    - DEWPOINT TEMPERATURE.
      RH  - RELATIVE HUMIDITY.   PRES  - PRESSURE.
      HI  - HEAT INDEX.          WCI   - WIND CHILL INDEX.

*  THESE STATIONS ARE NOT NWS OR FAA STATIONS AND ARE NOT UNDER
   NWS QUALITY CONTROL.

LAZ038-040-048-061>063-065>067-069-281200-
SOUTHEAST LOUISIANA

CITY           SKY/WX    TMP DP  RH WIND       PRES   REMARKS
N.O. AUDUBON     N/A     44  35  70 MISG        N/A
N.O. INTL ARPT CLEAR     44  34  67 E8        30.42S
N.O. LAKEFRONT CLEAR     45  35  68 E15       30.43S
N.O. DOWNTOWN*   N/A     43  30  61 NE8       30.43S
SLIDELL        CLEAR     31  29  92 CALM      30.43S
BATON ROUGE    CLEAR     34  31  88 NE5       30.42S WCI  30
BOOTHVILLE     CLEAR     50  43  77 NE9       30.40S
BELLE CHASSE   CLEAR     41  35  79 NE5       30.42S
BOGALUSA*        N/A     33  31  92 CALM      30.45S
NEW ROADS*       N/A     37  31  81 E5        30.42S WCI  33
GONZALES*        N/A     37  35  92 CALM      30.42S
HAMMOND*       CLEAR     36  32  87 NE3       30.44F
HOUMA*         CLEAR     37  34  88 NE5       30.41S WCI  34
PORT FOURCHON* MOSUNNY   50  45  81 NE12      30.43S

$$

MSZ070-080>082-281200-
SOUTHERN MISSISSIPPI

CITY           SKY/WX    TMP DP  RH WIND       PRES   REMARKS
MCCOMB         CLEAR     32  28  85 CALM      30.42S
GULFPORT       CLEAR     35  32  88 CALM      30.42S
BILOXI         CLEAR     36  31  83 NE6       30.41F WCI  31
PASCAGOULA     CLEAR     31  29  92 CALM      30.42F

$$

COASTAL OBSERVATIONS
LAKE AND NEARSHORE STATIONS

STATION/POSITION TIME  TEMP    WIND        PRES    WAVE
                       AIR SEA DIR/SP/G            HT/PER
                 (UTC) (F)     (DEG/KT/KT) (MB)    (FT/S)
PASCAGOULA       1100   39      40/  7/  9 1029.6
WAVELAND YACHT   1100   40      70/  5/  8 1029.4
GRAND ISLE       1100   51 59   60/ 11/ 13 1029.7
SOUTHWEST PASS   1100   54                 1029.1
NEW CANAL        1100   45 53   80/  9/ 16 1030.4
SHELL BEACH      1100   46 50   60/ 14/ 15 1029.7

OFFSHORE STATIONS

STATION/POSITION TIME  TEMP    WIND        PRES    WAVE
                       AIR SEA DIR/SP/G            HT/PER
                 (UTC) (F)     (DEG/KT/KT) (MB)    (FT/S)
64 S DAUPHIN ISL 1001   54 71   50/ 14/ 17 1029.3    4/ 6

$$



USA.gov is the U.S. government's official web portal to all federal, state and local government web resources and services.